Zurück zum Katalog

STARLINK-38126

AktivKommunikationSSO
NORAD 100235·PAYLOAD·🇺🇸 United States

Gestartet Aug 4, 2026 von Vandenberg Space Force Base

Loading…

Nächste Überflüge (nächste 24 Stunden)

TLE

AktuellSource: Space-Track

Epoche: Sep 14, 2026, 15:15 UTC

1 A0235U 26177Y   26257.63562081  .00042928  00000-0  78588-3 0  9990
2 A0235  97.2831 308.3927 0001538  89.4195 270.7232 15.49217856  6453

Verfolge STARLINK-38126 in Echtzeit mit AllMySat

Download on the App Store